Location: Home
(42.5358°N, 72.7383°W)
Time: 10:35:23
(UTC-05:00)

S-56A Canister/Altair - Pass Details

Date: 06 December 2021
Orbit: 634 x 2499 km, 38.9° (Epoch: 22 January)

Event Time Altitude Azimuth Distance (km) Brightness Sun altitude
Rises 22:19:40 0° 231° (SW) 5,794 12.1 -63.7°
Enters shadow 22:21:08 - 230° (SW) 5,378 11.9 -63.9°
Reaches altitude 10° 22:23:59 10° 227° (SW) 4,563 - -64.3°
Maximum altitude 22:35:09 47° 159° (SSE) 2,004 - -65.7°
Drops below altitude 10° 22:42:44 10° 88° (E) 3,144 - -66.5°
Sets 22:45:11 0° 82° (E) 3,894 - -66.8°
